Simultaneous Nadir Overpasses (SNOs) Predictions

Prediction of SNOs between GOES-15 and METOP-A Satellite Orbit:

Table of predicted SNOs for the next 14.0 days since TLE Epoch: 4/25/2014
Index Date Time (GOES-15) GOES-15 Lat,Lon METOP-A Lat,Lon Distance(km) Time Diff (sec)
1 04/26/2014 18:34:49 -0.00,-135.38 0.32,-136.80 161.90 80
2 04/27/2014 18:16:51 0.00,-135.37 -0.81,-131.81 406.03 80
3 04/29/2014 06:33:11 -0.00,-135.33 -0.25,-136.39 122.05 80
4 04/30/2014 06:15:12 -0.00,-135.31 0.88,-131.40 445.42 80
5 05/01/2014 18:31:25 -0.00,-135.30 0.17,-135.96 75.00 80
6 05/02/2014 18:13:26 -0.00,-135.29 -0.96,-130.97 492.28 80
7 05/04/2014 06:29:47 0.01,-135.24 -0.08,-135.55 36.77 80
8 05/06/2014 18:30:40 -0.02,-135.20 -0.01,-135.12 9.33 80
9 05/09/2014 06:29:02 0.02,-135.12 0.11,-134.72 46.15 80




NCC Satellite Simultaneous Nadir Overpasses (SNOs) Prediction Service
